| time (UTC) | temp F | wind direction | speed MPH | gust MPH | rain 1hr in | rain 24hr in | rain mn in | humidity % | barometer mb |
| 20260506131508 | 60 | 159 | 3.0 | 6.0 | 0.00 | 0.00 | 0.00 | 84 | 1007.0 |
| 20260506130003 | 59 | 177 | 3.0 | 10.0 | 0.00 | 0.00 | 0.00 | 85 | 1006.8 |
| 20260506124501 | 60 | 166 | 2.0 | 9.0 | 0.00 | 0.00 | 0.00 | 84 | 1006.9 |
| 20260506123059 | 59 | 163 | 2.0 | 7.0 | 0.00 | 0.00 | 0.00 | 85 | 1007.2 |
| 20260506121556 | 59 | 28 | 3.0 | 9.0 | 0.00 | 0.00 | 0.00 | 86 | 1007.2 |
| 20260506120054 | 59 | 162 | 2.0 | 9.0 | 0.00 | 0.00 | 0.00 | 86 | 1007.4 |
| 20260506114552 | 58 | 159 | 2.0 | 7.0 | 0.00 | 0.00 | 0.00 | 88 | 1007.3 |
| 20260506113056 | 57 | 207 | 2.0 | 7.0 | 0.00 | 0.00 | 0.00 | 89 | 1007.2 |
| 20260506111550 | 56 | 152 | 2.0 | 6.0 | 0.00 | 0.00 | 0.00 | 90 | 1007.1 |
| 20260506110053 | 55 | 181 | 2.0 | 5.0 | 0.00 | 0.00 | 0.00 | 90 | 1007.3 |
| 20260506104544 | 55 | 148 | 2.0 | 5.0 | 0.00 | 0.00 | 0.00 | 90 | 1007.1 |
| 20260506103047 | 55 | 108 | 1.0 | 8.0 | 0.00 | 0.00 | 0.00 | 90 | 1007.2 |
| 20260506101552 | 55 | 221 | 1.0 | 10.0 | 0.00 | 0.00 | 0.00 | 90 | 1007.1 |
| 20260506100038 | 55 | 169 | 1.0 | 7.0 | 0.00 | 0.00 | 0.00 | 90 | 1007.1 |
| 20260506094546 | 55 | 164 | 2.0 | 5.0 | 0.00 | 0.00 | 0.00 | 90 | 1007.1 |
| 20260506093036 | 55 | 146 | 2.0 | 7.0 | 0.00 | 0.00 | 0.00 | 90 | 1007.1 |
| 20260506091536 | 55 | 192 | 1.0 | 8.0 | 0.00 | 0.00 | 0.00 | 90 | 1007.0 |
| 20260506090036 | 55 | 164 | 2.0 | 5.0 | 0.00 | 0.00 | 0.00 | 90 | 1007.3 |
| 20260506084534 | 55 | 150 | 2.0 | 6.0 | 0.00 | 0.00 | 0.00 | 90 | 1007.3 |
| 20260506083032 | 55 | 133 | 2.0 | 4.0 | 0.00 | 0.00 | 0.00 | 89 | 1007.5 |
| 20260506081530 | 55 | 184 | 1.0 | 5.0 | 0.00 | 0.00 | 0.00 | 89 | 1007.3 |
| 20260506073026 | 55 | 173 | 3.0 | 9.0 | 0.00 | 0.00 | 0.00 | 89 | 1007.7 |
| 20260506071526 | 55 | 269 | 2.0 | 8.0 | 0.00 | 0.00 | 0.00 | 89 | 1007.7 |
| 20260506061519 | 56 | 197 | 1.0 | 5.0 | 0.00 | 0.00 | 0.00 | 87 | 1007.6 |
| 20260506044511 | 57 | 294 | 2.0 | 8.0 | 0.00 | 0.00 | 0.00 | 85 | 1007.9 |
| 20260506043009 | 57 | 128 | 2.0 | 8.0 | 0.00 | 0.00 | 0.00 | 84 | 1007.9 |
| 20260506041517 | 58 | 209 | 4.0 | 9.0 | 0.00 | 0.00 | 0.00 | 83 | 1007.9 |
| 20260506040006 | 58 | 178 | 3.0 | 11.0 | 0.00 | 0.00 | 0.00 | 83 | 1007.9 |
| 20260506034507 | 58 | 290 | 3.0 | 11.0 | 0.00 | 0.00 | 0.00 | 82 | 1007.9 |
| 20260506033004 | 59 | 173 | 3.0 | 9.0 | 0.00 | 0.00 | 0.00 | 82 | 1008.0 |
| 20260506031507 | 59 | 178 | 2.0 | 12.0 | 0.00 | 0.00 | 0.00 | 82 | 1007.9 |
| 20260506030002 | 59 | 167 | 1.0 | 7.0 | 0.00 | 0.00 | 0.00 | 82 | 1008.0 |
| 20260506024502 | 59 | 163 | 2.0 | 7.0 | 0.00 | 0.00 | 0.00 | 81 | 1007.9 |
| 20260506023002 | 59 | 161 | 2.0 | 5.0 | 0.00 | 0.00 | 0.00 | 81 | 1007.9 |
| 20260506021502 | 60 | 161 | 2.0 | 16.0 | 0.00 | 0.00 | 0.00 | 79 | 1007.9 |
| 20260506020100 | 60 | 184 | 2.0 | 11.0 | 0.00 | 0.00 | 0.00 | 77 | 1007.8 |
| 20260506014600 | 60 | 165 | 3.0 | 7.0 | 0.00 | 0.00 | 0.00 | 77 | 1007.7 |
| 20260506013059 | 60 | 138 | 2.0 | 8.0 | 0.00 | 0.00 | 0.00 | 76 | 1007.6 |
| 20260506011558 | 61 | 180 | 5.0 | 10.0 | 0.00 | 0.00 | 0.00 | 76 | 1007.3 |
| 20260506010057 | 61 | 140 | 3.0 | 15.0 | 0.00 | 0.00 | 0.00 | 74 | 1007.2 |
| 20260506004558 | 61 | 202 | 3.0 | 9.0 | 0.00 | 0.00 | 0.00 | 74 | 1007.1 |
| 20260506003056 | 62 | 164 | 4.0 | 9.0 | 0.00 | 0.00 | 0.00 | 73 | 1006.9 |
| 20260506001616 | 62 | 214 | 3.0 | 11.0 | 0.00 | 0.00 | 0.00 | 73 | 1006.8 |
| 20260506000054 | 62 | 200 | 3.0 | 11.0 | 0.00 | 0.00 | 0.00 | 73 | 1006.7 |
| 20260505234554 | 62 | 176 | 3.0 | 12.0 | 0.00 | 0.00 | 0.00 | 72 | 1006.4 |
| 20260505233057 | 62 | 146 | 3.0 | 11.0 | 0.00 | 0.00 | 0.00 | 71 | 1006.0 |
| 20260505231556 | 62 | 57 | 5.0 | 13.0 | 0.00 | 0.00 | 0.00 | 71 | 1005.9 |
| 20260505224551 | 63 | 169 | 4.0 | 9.0 | 0.00 | 0.00 | 0.00 | 69 | 1005.8 |
| 20260505223057 | 63 | 134 | 4.0 | 10.0 | 0.00 | 0.00 | 0.00 | 68 | 1005.6 |
| 20260505221553 | 64 | 207 | 7.0 | 21.0 | 0.00 | 0.00 | 0.00 | 66 | 1005.6 |
| 20260505220050 | 65 | 162 | 4.0 | 18.0 | 0.00 | 0.00 | 0.00 | 65 | 1005.6 |
| 20260505214600 | 66 | 254 | 3.0 | 11.0 | 0.00 | 0.00 | 0.00 | 65 | 1005.5 |
| 20260505213056 | 66 | 171 | 3.0 | 11.0 | 0.00 | 0.00 | 0.00 | 65 | 1005.4 |
| 20260505211547 | 66 | 219 | 4.0 | 10.0 | 0.00 | 0.00 | 0.00 | 64 | 1005.1 |
| 20260505210051 | 67 | 171 | 4.0 | 9.0 | 0.00 | 0.00 | 0.00 | 63 | 1005.3 |
| 20260505204545 | 67 | 140 | 2.0 | 6.0 | 0.00 | 0.00 | 0.00 | 63 | 1005.2 |
| 20260505203048 | 67 | 183 | 3.0 | 8.0 | 0.00 | 0.00 | 0.00 | 63 | 1005.2 |
| 20260505201551 | 69 | 190 | 3.0 | 9.0 | 0.00 | 0.00 | 0.00 | 61 | 1005.3 |
| 20260505200042 | 70 | 155 | 3.0 | 9.0 | 0.00 | 0.00 | 0.00 | 59 | 1005.5 |
| 20260505194541 | 70 | 196 | 3.0 | 9.0 | 0.00 | 0.00 | 0.00 | 59 | 1005.7 |
| 20260505193045 | 70 | 188 | 3.0 | 10.0 | 0.00 | 0.00 | 0.00 | 59 | 1005.9 |
| 20260505191545 | 70 | 166 | 3.0 | 9.0 | 0.00 | 0.00 | 0.00 | 59 | 1006.3 |
| 20260505190037 | 70 | 219 | 2.0 | 7.0 | 0.00 | 0.00 | 0.00 | 60 | 1006.5 |
| 20260505184532 | 70 | 143 | 3.0 | 9.0 | 0.00 | 0.00 | 0.00 | 60 | 1006.6 |
| 20260505183045 | 70 | 151 | 3.0 | 7.0 | 0.00 | 0.00 | 0.00 | 60 | 1006.8 |
| 20260505181530 | 70 | 212 | 3.0 | 8.0 | 0.00 | 0.00 | 0.00 | 61 | 1006.9 |
| 20260505180035 | 70 | 149 | 3.0 | 8.0 | 0.00 | 0.00 | 0.00 | 60 | 1007.0 |
| 20260505174536 | 71 | 196 | 4.0 | 10.0 | 0.00 | 0.00 | 0.00 | 59 | 1007.1 |
| 20260505173036 | 70 | 180 | 2.0 | 8.0 | 0.00 | 0.00 | 0.00 | 61 | 1007.1 |
| 20260505171530 | 70 | 185 | 3.0 | 7.0 | 0.00 | 0.00 | 0.00 | 62 | 1007.2 |
| 20260505170026 | 71 | 143 | 4.0 | 8.0 | 0.00 | 0.00 | 0.00 | 59 | 1007.3 |
| 20260505164533 | 73 | 40 | 2.0 | 8.0 | 0.00 | 0.00 | 0.00 | 57 | 1007.3 |
| 20260505163024 | 72 | 233 | 2.0 | 6.0 | 0.00 | 0.00 | 0.00 | 59 | 1007.5 |
| 20260505161521 | 72 | 187 | 2.0 | 5.0 | 0.00 | 0.00 | 0.00 | 57 | 1007.7 |
| 20260505153020 | 71 | 195 | 2.0 | 5.0 | 0.00 | 0.00 | 0.00 | 60 | 1007.9 |
| 20260505151509 | 71 | 163 | 2.0 | 5.0 | 0.00 | 0.00 | 0.00 | 60 | 1008.2 |
| 20260505140104 | 68 | 146 | 2.0 | 5.0 | 0.00 | 0.00 | 0.00 | 64 | 1008.1 |